This demonstration page uses our WeatherBlox Daily Observations layout. Learn more.

Left ArrowRight Arrow

Hourly Observations for January 23, 2017

Temp ( °F °C ) Dew Point ( °F °C ) Humidity (%) Winds ( mph kmh ) Pressure ( in mb ) Visibility ( mi km ) Precip ( " mm )
12:53 am 00:53 Clear 31 -0.6 25 -3.9 79 79 W 5 7 29.94 1014 10 16 0.00 0.00
1:53 am 01:53 Clear 27 -2.8 23 -5 85 85 Calm 29.93 1013 10 16 0.00 0.00
2:53 am 02:53 Clear 26 -3.3 23 -5 88 88 Calm 29.93 1014 10 16 0.00 0.00
3:53 am 03:53 Clear 25 -3.9 23 -5 92 92 Calm 29.91 1013 10 16 0.00 0.00
4:53 am 04:53 Clear 28 -2.2 25 -3.9 88 88 Calm 29.91 1013 10 16 0.00 0.00
5:53 am 05:53 Clear 29 -1.7 25 -3.9 85 85 E 7 11 29.90 1012 10 16 0.00 0.00
6:53 am 06:53 Clear 29 -1.7 26 -3.3 89 89 E 5 7 29.92 1013 10 16 0.00 0.00
7:53 am 07:53 Mostly Sunny 29 -1.7 26 -3.3 89 89 SE 7 11 29.91 1013 10 16 0.00 0.00
8:53 am 08:53 Cloudy 29 -1.7 27 -2.8 92 92 ESE 6 9 29.90 1013 10 16 0.00 0.00
9:53 am 09:53 Partly Cloudy 31 -0.6 28 -2.2 89 89 SE 8 13 29.90 1013 9 14 0.00 0.00
10:53 am 10:53 Sunny 34 1.1 30 -1.1 85 85 SE 9 15 29.88 1012 9 14 0.00 0.00
11:53 am 11:53 Mostly Sunny 34 1.1 31 -0.6 89 89 ESE 9 15 29.85 1011 9 14 0.00 0.00
12:53 pm 12:53 Sunny 38 3.3 32 0 79 79 ESE 8 13 29.81 1009 10 16 0.00 0.00
1:53 pm 13:53 Sunny 39 3.9 33 0.6 79 79 ESE 12 19 29.77 1008 10 16 0.00 0.00
2:53 pm 14:53 Sunny 39 3.9 33 0.6 79 79 ESE 14 22 29.74 1007 10 16 0.00 0.00
3:50 pm 15:50 Partly Cloudy with Mist and Fog 37 3 34 1 87 87 E 14 22 29.77 1008 5 8 0.00 0.00
3:53 pm 15:53 Sunny with Mist and Fog 38 3.3 34 1.1 86 86 E 13 20 29.73 1007 4 6 0.00 0.00
4:00 pm 16:00 Partly Cloudy with Mist and Fog 37 2.8 34 1.1 89 89 E 12 19 29.77 1008 3 5 0.00 0.00
4:24 pm 16:24 Mostly Cloudy with Mist and Fog 37 3 34 1 87 87 E 13 20 29.77 1008 4 6 0.00 0.00
4:45 pm 16:45 Cloudy with Mist and Fog 36 2.2 33 0.6 89 89 E 13 20 29.77 1008 4 6 0.00 0.00
4:53 pm 16:53 Cloudy with Mist and Fog 36 2.2 33 0.6 89 89 E 12 19 29.74 1007 4 6 0.00 0.00
5:20 pm 17:20 Mostly Cloudy with Mist and Fog 36 2 34 1 93 93 ESE 14 22 29.77 1008 3 4 0.00 0.00
5:53 pm 17:53 Cloudy with Mist and Fog 35 1.7 33 0.6 93 93 E 9 15 29.74 1007 3 4 0.00 0.00
6:02 pm 18:02 Cloudy with Mist and Fog 34 1 32 0 93 93 ESE 13 20 29.77 1008 4 6 0.00 0.00
6:53 pm 18:53 Cloudy with Mist and Fog 33 0.6 32 0 96 96 ESE 15 24 29.74 1007 4 6 0.00 0.00
7:53 pm 19:53 Cloudy with Mist and Fog 34 1.1 32 0 92 92 ESE 15 24 29.75 1008 6 10 0.00 0.00
8:53 pm 20:53 Cloudy with Mist and Fog 33 0.6 31 -0.6 92 92 ESE 14 22 29.75 1008 3 5 0.00 0.00
9:00 pm 21:00 Cloudy with Mist and Fog 32 0 30 -1 93 93 ESE 16 26 29.77 1008 2 3 0.00 0.00
9:13 pm 21:13 Cloudy with Fog 32 0 30 -1 93 93 SE 16 26 29.77 1008 1 1 0.00 0.00
9:53 pm 21:53 Mostly Cloudy with Fog 32 0 31 -0.6 96 96 SE 13 20 29.75 1007 1 1 0.00 0.00
10:53 pm 22:53 Mostly Cloudy with Fog 32 0 31 -0.6 96 96 ESE 13 20 29.74 1007 1 1 0.00 0.00
11:49 pm 23:49 Cloudy with Mist and Fog 32 0 32 0 100 100 ESE 12 19 29.77 1008 2 2 0.00 0.00
11:53 pm 23:53 Cloudy with Mist and Fog 32 0 31 -0.6 96 96 ESE 16 26 29.73 1007 2 2 0.00 0.00

Powered by AerisWeather